Regional Weather Roundup
Issued by NWS

Home | Current Version | Previous Version | Text Only | Print | Product List | Glossary On
Versions: 1 2 3 4 5 6 7 8 9 10 11 12 13 14 15 16 17 18 19 20 21 22 23 24 25 26 27 28 29 30 31 32 33 34 35 36 37 38 39 40 41 42 43 44 45 46 47 48 49 50
000
ASUS43 KLMK 240202
RWRKY
KENTUCKY REGIONAL WEATHER ROUNDUP
NATIONAL WEATHER SERVICE LOUISVILLE KY
1000 PM EDT FRI SEP 23 2016

NOTE "FAIR" INDICATES FEW OR NO CLOUDS BELOW 12,000 FEET
WITH NO SIGNIFICANT WEATHER AND/OR OBSTRUCTIONS TO VISIBILITY.

KYZ001>023-026-027-061>063-070>075-240300-
WESTERN AND SOUTH CENTRAL KENTUCKY

CITY           SKY/WX    TMP DP  RH WIND       PRES   REMARKS
PADUCAH        CLEAR     73  69  87 CALM      30.03R
HENDERSON      CLEAR     70  63  78 CALM      30.04R
OWENSBORO      CLEAR    N/A N/A N/A VRB5      30.04R
HOPKINSVILLE   CLEAR     75  70  84 N3        30.05R
BOWLING GREEN  CLEAR     75  68  78 CALM      30.06R
GLASGOW        CLEAR     69  69 100 CALM      30.08R
$$

KYZ024-025-028>034-038-045-046-053-240300-
NORTH CENTRAL KENTUCKY

CITY           SKY/WX    TMP DP  RH WIND       PRES   REMARKS
LOUISVILLE/SDF PTCLDY    78  63  59 W6        30.05R
LOUISVILLE/LOU CLEAR     80  64  58 NW3       30.06R
FORT KNOX      CLEAR     71  66  82 CALM      30.06R
$$

KYZ035>037-039>044-047>052-055>060-089>105-240300-
NORTHEAST KENTUCKY

CITY           SKY/WX    TMP DP  RH WIND       PRES   REMARKS
LEXINGTON      CLEAR     75  63  66 CALM      30.08R
COVINGTON      PTCLDY    73  65  75 CALM      30.07R
FRANKFORT      CLEAR     74  65  73 CALM      30.06R
$$

KYZ054-064>069-076>088-106>120-240300-
SOUTHEAST KENTUCKY

CITY           SKY/WX    TMP DP  RH WIND       PRES   REMARKS
JACKSON        CLEAR     76  62  62 CALM      30.10R
LONDON         CLEAR     72  64  76 CALM      30.10R
SOMERSET       CLEAR     68  64  88 CALM      30.10R
MIDDLESBORO    CLEAR     69  65  86 CALM      30.11R
MONTICELLO     CLEAR     65  61  87 W9        30.10R
$$





USA.gov is the U.S. government's official web portal to all federal, state and local government web resources and services.